Volver al catálogo

THORAD AGENA D DEB

ActivoSSO
NORAD 19290·DEBRIS·🇺🇸 United States

Lanzado Apr 8, 1970 desde Vandenberg Space Force Base

Loading…

Próximos Pases (próximas 24 horas)

TLE

ActualizadoSource: Space-Track

Época: Sep 14, 2026, 19:35 UTC

1 19290U 70025PV  26257.81618525  .00000210  00000-0  34616-3 0  9999
2 19290  99.9022 209.4584 0027878   7.5420  21.9815 13.59207908 50685

Sigue THORAD AGENA D DEB en tiempo real con AllMySat

Download on the App Store